owner,sensor,date,latitude,longitude,vertical_datum,wind_speed,wind_to_direction,wind_speed_of_gust,qcFlag 
COMPS,ioos:station:USF.COMPS:BGC:1,2011-06-03T20:00:00Z,26.4040,-81.8810,10.0,6.2,60.0,,'1111122,1111122,1111122' 
COMPS,ioos:station:USF.COMPS:BGC:1,2011-06-03T21:00:00Z,26.4040,-81.8810,10.0,5.7,50.0,,'1111122,1111122,1111122' 
COMPS,ioos:station:USF.COMPS:BGC:1,2011-06-03T22:00:00Z,26.4040,-81.8810,10.0,6.2,60.0,,'1111122,1111122,1111122' 
COMPS,ioos:station:USF.COMPS:BGC:1,2011-06-03T23:00:00Z,26.4040,-81.8810,10.0,5.1,60.0,,'1111122,1111122,1111122' 
COMPS,ioos:station:USF.COMPS:BGC:1,2011-06-04T00:00:00Z,26.4040,-81.8810,10.0,5.7,60.0,,'1111122,1111122,1111122' 
COMPS,ioos:station:USF.COMPS:BGC:1,2011-06-04T01:00:00Z,26.4040,-81.8810,10.0,5.7,60.0,,'1111122,1111122,1111122' 
COMPS,ioos:station:USF.COMPS:BGC:1,2011-06-04T02:00:00Z,26.4040,-81.8810,10.0,4.1,60.0,,'1111122,1111122,1111122' 
COMPS,ioos:station:USF.COMPS:BGC:1,2011-06-04T03:00:00Z,26.4040,-81.8810,10.0,5.1,80.0,,'1111122,1111122,1111122' 
COMPS,ioos:station:USF.COMPS:BGC:1,2011-06-04T04:00:00Z,26.4040,-81.8810,10.0,5.1,70.0,,'1111122,1111122,1111122' 
COMPS,ioos:station:USF.COMPS:BGC:1,2011-06-04T05:00:00Z,26.4040,-81.8810,10.0,4.1,70.0,,'1111122,1111122,1111122' 
COMPS,ioos:station:USF.COMPS:BGC:1,2011-06-04T06:00:00Z,26.4040,-81.8810,10.0,4.1,60.0,,'1111122,1111122,1111122' 
COMPS,ioos:station:USF.COMPS:BGC:1,2011-06-04T07:00:00Z,26.4040,-81.8810,10.0,4.1,60.0,,'1111122,1111122,1111122' 
COMPS,ioos:station:USF.COMPS:BGC:1,2011-06-04T08:00:00Z,26.4040,-81.8810,10.0,3.1,50.0,,'1111122,1111122,1111122' 
COMPS,ioos:station:USF.COMPS:BGC:1,2011-06-04T09:00:00Z,26.4040,-81.8810,10.0,4.6,30.0,,'1111122,1111122,1111122' 
COMPS,ioos:station:USF.COMPS:BGC:1,2011-06-04T10:00:00Z,26.4040,-81.8810,10.0,3.1,50.0,,'1111122,1111122,1111122' 
COMPS,ioos:station:USF.COMPS:BGC:1,2011-06-04T11:00:00Z,26.4040,-81.8810,10.0,3.6,40.0,,'1111122,1111122,1111122' 
COMPS,ioos:station:USF.COMPS:BGC:1,2011-06-04T12:00:00Z,26.4040,-81.8810,10.0,4.6,30.0,,'1111122,1111122,1111122' 
COMPS,ioos:station:USF.COMPS:BGC:1,2011-06-04T13:00:00Z,26.4040,-81.8810,10.0,3.6,60.0,,'1111122,1111122,1111122' 
COMPS,ioos:station:USF.COMPS:BGC:1,2011-06-04T14:00:00Z,26.4040,-81.8810,10.0,5.1,80.0,,'1111122,1111122,1111122' 
COMPS,ioos:station:USF.COMPS:BGC:1,2011-06-04T15:00:00Z,26.4040,-81.8810,10.0,4.1,60.0,,'1111122,1111122,1111122' 
COMPS,ioos:station:USF.COMPS:BGC:1,2011-06-04T16:00:00Z,26.4040,-81.8810,10.0,3.6,60.0,,'1111122,1111122,1111122' 
COMPS,ioos:station:USF.COMPS:BGC:1,2011-06-04T17:00:00Z,26.4040,-81.8810,10.0,3.6,70.0,,'1111122,1111122,1111122' 
COMPS,ioos:station:USF.COMPS:BGC:1,2011-06-04T18:00:00Z,26.4040,-81.8810,10.0,4.6,70.0,,'1111122,1111122,1111122' 
COMPS,ioos:station:USF.COMPS:BGC:1,2011-06-04T19:00:00Z,26.4040,-81.8810,10.0,4.6,40.0,,'1111122,1111122,1111122' 
COMPS,ioos:station:USF.COMPS:BGC:1,2011-06-04T20:00:00Z,26.4040,-81.8810,10.0,4.1,50.0,,'1111122,1111122,1111122' 
COMPS,ioos:station:USF.COMPS:BGC:1,2011-06-04T21:00:00Z,26.4040,-81.8810,10.0,5.1,50.0,,'1111122,1111122,1111122' 
COMPS,ioos:station:USF.COMPS:BGC:1,2011-06-04T22:00:00Z,26.4040,-81.8810,10.0,5.1,50.0,,'1111122,1111122,1111122' 
COMPS,ioos:station:USF.COMPS:BGC:1,2011-06-04T23:00:00Z,26.4040,-81.8810,10.0,6.2,60.0,,'1111122,1111122,1111122' 
COMPS,ioos:station:USF.COMPS:BGC:1,2011-06-05T00:00:00Z,26.4040,-81.8810,10.0,6.7,60.0,,'1111122,1111122,1111122' 
COMPS,ioos:station:USF.COMPS:BGC:1,2011-06-05T01:00:00Z,26.4040,-81.8810,10.0,5.7,60.0,,'1111122,1111122,1111122' 
COMPS,ioos:station:USF.COMPS:BGC:1,2011-06-05T02:00:00Z,26.4040,-81.8810,10.0,4.1,60.0,,'1111122,1111122,1111122' 
COMPS,ioos:station:USF.COMPS:BGC:1,2011-06-05T03:00:00Z,26.4040,-81.8810,10.0,5.1,70.0,,'1111122,1111122,1111122' 
COMPS,ioos:station:USF.COMPS:BGC:1,2011-06-05T04:00:00Z,26.4040,-81.8810,10.0,5.1,70.0,,'1111122,1111122,1111122' 
COMPS,ioos:station:USF.COMPS:BGC:1,2011-06-05T05:00:00Z,26.4040,-81.8810,10.0,3.6,70.0,,'1111122,1111122,1111122' 
COMPS,ioos:station:USF.COMPS:BGC:1,2011-06-05T06:00:00Z,26.4040,-81.8810,10.0,3.1,70.0,,'1111122,1111122,1111122' 
COMPS,ioos:station:USF.COMPS:BGC:1,2011-06-05T07:00:00Z,26.4040,-81.8810,10.0,3.1,80.0,,'1111122,1111122,1111122' 
COMPS,ioos:station:USF.COMPS:BGC:1,2011-06-05T08:00:00Z,26.4040,-81.8810,10.0,2.6,60.0,,'1111122,1111122,1111122' 
COMPS,ioos:station:USF.COMPS:BGC:1,2011-06-05T09:00:00Z,26.4040,-81.8810,10.0,2.1,70.0,,'1111122,1111122,1111122' 
COMPS,ioos:station:USF.COMPS:BGC:1,2011-06-05T10:00:00Z,26.4040,-81.8810,10.0,2.6,50.0,,'1111122,1111122,1111122' 
COMPS,ioos:station:USF.COMPS:BGC:1,2011-06-05T11:00:00Z,26.4040,-81.8810,10.0,3.1,40.0,,'1111122,1111122,1111122' 
COMPS,ioos:station:USF.COMPS:BGC:1,2011-06-05T12:00:00Z,26.4040,-81.8810,10.0,4.1,40.0,,'1111122,1111122,1111122' 
COMPS,ioos:station:USF.COMPS:BGC:1,2011-06-05T13:00:00Z,26.4040,-81.8810,10.0,4.6,60.0,,'1111122,1111122,1111122' 
COMPS,ioos:station:USF.COMPS:BGC:1,2011-06-05T14:00:00Z,26.4040,-81.8810,10.0,4.6,70.0,,'1111122,1111122,1111122' 
COMPS,ioos:station:USF.COMPS:BGC:1,2011-06-05T15:00:00Z,26.4040,-81.8810,10.0,3.6,50.0,,'1111122,1111122,1111122' 
COMPS,ioos:station:USF.COMPS:BGC:1,2011-06-05T16:00:00Z,26.4040,-81.8810,10.0,4.1,70.0,,'1111122,1111122,1111122' 
COMPS,ioos:station:USF.COMPS:BGC:1,2011-06-05T17:00:00Z,26.4040,-81.8810,10.0,3.1,60.0,,'1111122,1111122,1111122' 
COMPS,ioos:station:USF.COMPS:BGC:1,2011-06-05T19:00:00Z,26.4040,-81.8810,10.0,4.6,60.0,,'1111122,1111122,1111122' 
COMPS,ioos:station:USF.COMPS:BGC:1,2011-06-05T20:00:00Z,26.4040,-81.8810,10.0,3.6,60.0,,'1111122,1111122,1111122' 
COMPS,ioos:station:USF.COMPS:BGC:1,2011-06-05T21:00:00Z,26.4040,-81.8810,10.0,3.1,140.0,,'1111122,1111122,1111122' 
COMPS,ioos:station:USF.COMPS:BGC:1,2011-06-05T22:00:00Z,26.4040,-81.8810,10.0,5.1,290.0,,'1111122,1111122,1111122' 
COMPS,ioos:station:USF.COMPS:BGC:1,2011-06-05T23:00:00Z,26.4040,-81.8810,10.0,4.6,290.0,,'1111122,1111122,1111122' 
COMPS,ioos:station:USF.COMPS:BGC:1,2011-06-06T00:00:00Z,26.4040,-81.8810,10.0,3.1,310.0,,'1111122,1111122,1111122' 
COMPS,ioos:station:USF.COMPS:BGC:1,2011-06-06T01:00:00Z,26.4040,-81.8810,10.0,4.6,350.0,,'1111122,1111122,1111122' 
COMPS,ioos:station:USF.COMPS:BGC:1,2011-06-06T02:00:00Z,26.4040,-81.8810,10.0,3.6,40.0,,'1111122,1111122,1111122' 
COMPS,ioos:station:USF.COMPS:BGC:1,2011-06-06T03:00:00Z,26.4040,-81.8810,10.0,6.2,70.0,,'1111122,1111122,1111122' 
COMPS,ioos:station:USF.COMPS:BGC:1,2011-06-06T04:00:00Z,26.4040,-81.8810,10.0,4.6,70.0,,'1111122,1111122,1111122' 
COMPS,ioos:station:USF.COMPS:BGC:1,2011-06-06T05:00:00Z,26.4040,-81.8810,10.0,3.1,80.0,,'1111122,1111122,1111122' 
COMPS,ioos:station:USF.COMPS:BGC:1,2011-06-06T06:00:00Z,26.4040,-81.8810,10.0,3.6,90.0,,'1111122,1111122,1111122' 
COMPS,ioos:station:USF.COMPS:BGC:1,2011-06-06T07:00:00Z,26.4040,-81.8810,10.0,3.1,90.0,,'1111122,1111122,1111122' 
COMPS,ioos:station:USF.COMPS:BGC:1,2011-06-06T08:00:00Z,26.4040,-81.8810,10.0,2.6,80.0,,'1111122,1111122,1111122' 
COMPS,ioos:station:USF.COMPS:BGC:1,2011-06-06T09:00:00Z,26.4040,-81.8810,10.0,3.1,90.0,,'1111122,1111122,1111122' 
COMPS,ioos:station:USF.COMPS:BGC:1,2011-06-06T10:00:00Z,26.4040,-81.8810,10.0,2.1,80.0,,'1111122,1111122,1111122' 
COMPS,ioos:station:USF.COMPS:BGC:1,2011-06-06T11:00:00Z,26.4040,-81.8810,10.0,2.1,90.0,,'1111122,1111122,1111122' 
COMPS,ioos:station:USF.COMPS:BGC:1,2011-06-06T12:00:00Z,26.4040,-81.8810,10.0,2.6,80.0,,'1111122,1111122,1111122' 
COMPS,ioos:station:USF.COMPS:BGC:1,2011-06-06T13:00:00Z,26.4040,-81.8810,10.0,3.1,100.0,,'1111122,1111122,1111122' 
COMPS,ioos:station:USF.COMPS:BGC:1,2011-06-06T14:00:00Z,26.4040,-81.8810,10.0,0.5,100.0,,'1111122,1111122,1111122' 
COMPS,ioos:station:USF.COMPS:BGC:1,2011-06-06T15:00:00Z,26.4040,-81.8810,10.0,0.5,280.0,,'1111122,1111122,1111122' 
COMPS,ioos:station:USF.COMPS:BGC:1,2011-06-06T16:00:00Z,26.4040,-81.8810,10.0,3.6,240.0,,'1111122,1111122,1111122' 
COMPS,ioos:station:USF.COMPS:BGC:1,2011-06-06T17:00:00Z,26.4040,-81.8810,10.0,4.6,240.0,,'1111122,1111122,1111122' 
COMPS,ioos:station:USF.COMPS:BGC:1,2011-06-06T18:00:00Z,26.4040,-81.8810,10.0,5.1,240.0,,'1111122,1111122,1111122' 
COMPS,ioos:station:USF.COMPS:BGC:1,2011-06-06T19:00:00Z,26.4040,-81.8810,10.0,6.2,250.0,,'1111122,1111122,1111122' 
COMPS,ioos:station:USF.COMPS:BGC:1,2011-06-06T20:00:00Z,26.4040,-81.8810,10.0,6.2,250.0,,'1111122,1111122,1111122' 
COMPS,ioos:station:USF.COMPS:BGC:1,2011-06-06T21:00:00Z,26.4040,-81.8810,10.0,5.1,260.0,,'1111122,1111122,1111122' 
COMPS,ioos:station:USF.COMPS:BGC:1,2011-06-06T22:00:00Z,26.4040,-81.8810,10.0,4.6,250.0,,'1111122,1111122,1111122' 
COMPS,ioos:station:USF.COMPS:BGC:1,2011-06-06T23:00:00Z,26.4040,-81.8810,10.0,3.1,290.0,,'1111122,1111122,1111122' 
COMPS,ioos:station:USF.COMPS:BGC:1,2011-06-07T00:00:00Z,26.4040,-81.8810,10.0,4.1,310.0,,'1111122,1111122,1111122' 
COMPS,ioos:station:USF.COMPS:BGC:1,2011-06-07T01:00:00Z,26.4040,-81.8810,10.0,4.6,320.0,,'1111122,1111122,1111122' 
COMPS,ioos:station:USF.COMPS:BGC:1,2011-06-07T03:00:00Z,26.4040,-81.8810,10.0,4.6,360.0,,'1111122,1111122,1111122' 
COMPS,ioos:station:USF.COMPS:BGC:1,2011-06-07T05:00:00Z,26.4040,-81.8810,10.0,3.1,100.0,,'1111122,1111122,1111122' 
COMPS,ioos:station:USF.COMPS:BGC:1,2011-06-07T06:00:00Z,26.4040,-81.8810,10.0,3.6,90.0,,'1111122,1111122,1111122' 
COMPS,ioos:station:USF.COMPS:BGC:1,2011-06-07T10:00:00Z,26.4040,-81.8810,10.0,3.1,100.0,,'1111122,1111122,1111122' 
COMPS,ioos:station:USF.COMPS:BGC:1,2011-06-07T11:00:00Z,26.4040,-81.8810,10.0,3.1,80.0,,'1111122,1111122,1111122' 
COMPS,ioos:station:USF.COMPS:BGC:1,2011-06-07T12:00:00Z,26.4040,-81.8810,10.0,3.1,100.0,,'1111122,1111122,1111122' 
COMPS,ioos:station:USF.COMPS:BGC:1,2011-06-07T13:00:00Z,26.4040,-81.8810,10.0,4.1,80.0,,'1111122,1111122,1111122' 
COMPS,ioos:station:USF.COMPS:BGC:1,2011-06-07T14:00:00Z,26.4040,-81.8810,10.0,3.1,90.0,,'1111122,1111122,1111122' 
COMPS,ioos:station:USF.COMPS:BGC:1,2011-06-07T15:00:00Z,26.4040,-81.8810,10.0,2.6,100.0,,'1111122,1111122,1111122' 
COMPS,ioos:station:USF.COMPS:BGC:1,2011-06-07T16:00:00Z,26.4040,-81.8810,10.0,3.6,90.0,,'1111122,1111122,1111122' 
COMPS,ioos:station:USF.COMPS:BGC:1,2011-06-07T17:00:00Z,26.4040,-81.8810,10.0,2.6,60.0,,'1111122,1111122,1111122' 
COMPS,ioos:station:USF.COMPS:BGC:1,2011-06-07T19:00:00Z,26.4040,-81.8810,10.0,3.6,90.0,,'1111122,1111122,1111122' 
COMPS,ioos:station:USF.COMPS:BGC:1,2011-06-07T20:00:00Z,26.4040,-81.8810,10.0,4.6,60.0,,'1111122,1111122,1111122' 
COMPS,ioos:station:USF.COMPS:BGC:1,2011-06-07T22:00:00Z,26.4040,-81.8810,10.0,7.7,50.0,,'1111122,1111122,1111122' 
COMPS,ioos:station:USF.COMPS:BGC:1,2011-06-07T23:00:00Z,26.4040,-81.8810,10.0,7.2,60.0,,'1111122,1111122,1111122' 
COMPS,ioos:station:USF.COMPS:BGC:1,2011-06-08T00:00:00Z,26.4040,-81.8810,10.0,8.2,60.0,,'1111122,1111122,1111122' 
COMPS,ioos:station:USF.COMPS:BGC:1,2011-06-08T01:00:00Z,26.4040,-81.8810,10.0,6.7,60.0,,'1111122,1111122,1111122' 
COMPS,ioos:station:USF.COMPS:BGC:1,2011-06-08T02:00:00Z,26.4040,-81.8810,10.0,5.7,80.0,,'1111122,1111122,1111122' 
COMPS,ioos:station:USF.COMPS:BGC:1,2011-06-08T03:00:00Z,26.4040,-81.8810,10.0,4.6,80.0,,'1111122,1111122,1111122' 
COMPS,ioos:station:USF.COMPS:BGC:1,2011-06-08T04:00:00Z,26.4040,-81.8810,10.0,4.1,80.0,,'1111122,1111122,1111122' 
COMPS,ioos:station:USF.COMPS:BGC:1,2011-06-08T05:00:00Z,26.4040,-81.8810,10.0,4.1,80.0,,'1111122,1111122,1111122' 
COMPS,ioos:station:USF.COMPS:BGC:1,2011-06-08T06:00:00Z,26.4040,-81.8810,10.0,3.6,50.0,,'1111122,1111122,1111122' 
COMPS,ioos:station:USF.COMPS:BGC:1,2011-06-08T07:00:00Z,26.4040,-81.8810,10.0,4.1,40.0,,'1111122,1111122,1111122' 
COMPS,ioos:station:USF.COMPS:BGC:1,2011-06-08T08:00:00Z,26.4040,-81.8810,10.0,4.6,60.0,,'1111122,1111122,1111122' 
COMPS,ioos:station:USF.COMPS:BGC:1,2011-06-08T09:00:00Z,26.4040,-81.8810,10.0,3.6,50.0,,'1111122,1111122,1111122' 
COMPS,ioos:station:USF.COMPS:BGC:1,2011-06-08T10:00:00Z,26.4040,-81.8810,10.0,3.1,60.0,,'1111122,1111122,1111122' 
COMPS,ioos:station:USF.COMPS:BGC:1,2011-06-08T11:00:00Z,26.4040,-81.8810,10.0,3.6,60.0,,'1111122,1111122,1111122' 
COMPS,ioos:station:USF.COMPS:BGC:1,2011-06-08T12:00:00Z,26.4040,-81.8810,10.0,3.1,60.0,,'1111122,1111122,1111122' 
COMPS,ioos:station:USF.COMPS:BGC:1,2011-06-08T13:00:00Z,26.4040,-81.8810,10.0,3.1,60.0,,'1111122,1111122,1111122' 
COMPS,ioos:station:USF.COMPS:BGC:1,2011-06-08T14:00:00Z,26.4040,-81.8810,10.0,4.1,70.0,,'1111122,1111122,1111122' 
COMPS,ioos:station:USF.COMPS:BGC:1,2011-06-08T15:00:00Z,26.4040,-81.8810,10.0,3.6,70.0,,'1111122,1111122,1111122' 
COMPS,ioos:station:USF.COMPS:BGC:1,2011-06-08T16:00:00Z,26.4040,-81.8810,10.0,5.1,60.0,,'1111122,1111122,1111122' 
COMPS,ioos:station:USF.COMPS:BGC:1,2011-06-08T17:00:00Z,26.4040,-81.8810,10.0,4.6,80.0,,'1111122,1111122,1111122' 
COMPS,ioos:station:USF.COMPS:BGC:1,2011-06-08T18:00:00Z,26.4040,-81.8810,10.0,4.1,60.0,,'1111122,1111122,1111122' 
COMPS,ioos:station:USF.COMPS:BGC:1,2011-06-08T19:00:00Z,26.4040,-81.8810,10.0,4.6,60.0,,'1111122,1111122,1111122' 
COMPS,ioos:station:USF.COMPS:BGC:1,2011-06-08T20:00:00Z,26.4040,-81.8810,10.0,5.1,70.0,,'1111122,1111122,1111122' 
COMPS,ioos:station:USF.COMPS:BGC:1,2011-06-08T21:00:00Z,26.4040,-81.8810,10.0,5.7,100.0,,'1111122,1111122,1111122' 
COMPS,ioos:station:USF.COMPS:BGC:1,2011-06-08T22:00:00Z,26.4040,-81.8810,10.0,5.1,110.0,,'1111122,1111122,1111122' 
COMPS,ioos:station:USF.COMPS:BGC:1,2011-06-08T23:00:00Z,26.4040,-81.8810,10.0,4.6,100.0,,'1111122,1111122,1111122' 
COMPS,ioos:station:USF.COMPS:BGC:1,2011-06-09T00:00:00Z,26.4040,-81.8810,10.0,2.1,230.0,,'1111122,1111122,1111122' 
COMPS,ioos:station:USF.COMPS:BGC:1,2011-06-09T02:00:00Z,26.4040,-81.8810,10.0,4.6,80.0,,'1111122,1111122,1111122' 
COMPS,ioos:station:USF.COMPS:BGC:1,2011-06-09T03:00:00Z,26.4040,-81.8810,10.0,4.6,80.0,,'1111122,1111122,1111122' 
COMPS,ioos:station:USF.COMPS:BGC:1,2011-06-09T04:00:00Z,26.4040,-81.8810,10.0,4.1,80.0,,'1111122,1111122,1111122' 
COMPS,ioos:station:USF.COMPS:BGC:1,2011-06-09T05:00:00Z,26.4040,-81.8810,10.0,3.6,70.0,,'1111122,1111122,1111122' 
COMPS,ioos:station:USF.COMPS:BGC:1,2011-06-09T06:00:00Z,26.4040,-81.8810,10.0,4.1,60.0,,'1111122,1111122,1111122' 
COMPS,ioos:station:USF.COMPS:BGC:1,2011-06-09T07:00:00Z,26.4040,-81.8810,10.0,3.6,50.0,,'1111122,1111122,1111122' 
COMPS,ioos:station:USF.COMPS:BGC:1,2011-06-09T08:00:00Z,26.4040,-81.8810,10.0,3.6,60.0,,'1111122,1111122,1111122' 
COMPS,ioos:station:USF.COMPS:BGC:1,2011-06-09T09:00:00Z,26.4040,-81.8810,10.0,3.6,40.0,,'1111122,1111122,1111122' 
COMPS,ioos:station:USF.COMPS:BGC:1,2011-06-09T10:00:00Z,26.4040,-81.8810,10.0,3.1,60.0,,'1111122,1111122,1111122' 
COMPS,ioos:station:USF.COMPS:BGC:1,2011-06-09T11:00:00Z,26.4040,-81.8810,10.0,3.1,50.0,,'1111122,1111122,1111122' 
COMPS,ioos:station:USF.COMPS:BGC:1,2011-06-09T12:00:00Z,26.4040,-81.8810,10.0,3.1,60.0,,'1111122,1111122,1111122' 
COMPS,ioos:station:USF.COMPS:BGC:1,2011-06-09T14:00:00Z,26.4040,-81.8810,10.0,3.6,70.0,,'1111122,1111122,1111122' 
COMPS,ioos:station:USF.COMPS:BGC:1,2011-06-09T15:00:00Z,26.4040,-81.8810,10.0,4.6,80.0,,'1111122,1111122,1111122' 
COMPS,ioos:station:USF.COMPS:BGC:1,2011-06-09T16:00:00Z,26.4040,-81.8810,10.0,4.1,80.0,,'1111122,1111122,1111122' 
COMPS,ioos:station:USF.COMPS:BGC:1,2011-06-09T17:00:00Z,26.4040,-81.8810,10.0,5.1,90.0,,'1111122,1111122,1111122' 
COMPS,ioos:station:USF.COMPS:BGC:1,2011-06-09T18:00:00Z,26.4040,-81.8810,10.0,4.1,80.0,,'1111122,1111122,1111122' 
COMPS,ioos:station:USF.COMPS:BGC:1,2011-06-09T19:00:00Z,26.4040,-81.8810,10.0,4.1,60.0,,'1111122,1111122,1111122' 
COMPS,ioos:station:USF.COMPS:BGC:1,2011-06-09T20:00:00Z,26.4040,-81.8810,10.0,4.6,70.0,,'1111122,1111122,1111122' 
COMPS,ioos:station:USF.COMPS:BGC:1,2011-06-09T21:00:00Z,26.4040,-81.8810,10.0,5.1,90.0,,'1111122,1111122,1111122' 
COMPS,ioos:station:USF.COMPS:BGC:1,2011-06-09T22:00:00Z,26.4040,-81.8810,10.0,6.2,90.0,,'1111122,1111122,1111122' 
COMPS,ioos:station:USF.COMPS:BGC:1,2011-06-09T23:00:00Z,26.4040,-81.8810,10.0,6.2,80.0,,'1111122,1111122,1111122' 
COMPS,ioos:station:USF.COMPS:BGC:1,2011-06-10T00:00:00Z,26.4040,-81.8810,10.0,5.7,100.0,,'1111122,1111122,1111122' 
COMPS,ioos:station:USF.COMPS:BGC:1,2011-06-10T01:00:00Z,26.4040,-81.8810,10.0,4.1,90.0,,'1111122,1111122,1111122' 
COMPS,ioos:station:USF.COMPS:BGC:1,2011-06-10T02:00:00Z,26.4040,-81.8810,10.0,3.6,100.0,,'1111122,1111122,1111122' 
COMPS,ioos:station:USF.COMPS:BGC:1,2011-06-10T04:00:00Z,26.4040,-81.8810,10.0,3.6,70.0,,'1111122,1111122,1111122' 
COMPS,ioos:station:USF.COMPS:BGC:1,2011-06-10T05:00:00Z,26.4040,-81.8810,10.0,3.1,70.0,,'1111122,1111122,1111122' 
COMPS,ioos:station:USF.COMPS:BGC:1,2011-06-10T06:00:00Z,26.4040,-81.8810,10.0,3.6,80.0,,'1111122,1111122,1111122' 
COMPS,ioos:station:USF.COMPS:BGC:1,2011-06-10T07:00:00Z,26.4040,-81.8810,10.0,3.1,50.0,,'1111122,1111122,1111122' 
COMPS,ioos:station:USF.COMPS:BGC:1,2011-06-10T08:00:00Z,26.4040,-81.8810,10.0,3.1,50.0,,'1111122,1111122,1111122' 
COMPS,ioos:station:USF.COMPS:BGC:1,2011-06-10T09:00:00Z,26.4040,-81.8810,10.0,3.1,40.0,,'1111122,1111122,1111122' 
COMPS,ioos:station:USF.COMPS:BGC:1,2011-06-10T10:00:00Z,26.4040,-81.8810,10.0,3.1,60.0,,'1111122,1111122,1111122' 
 
DISCLAIMER: The Gulf of Mexico Coastal and Ocean Observing (GCOOS) Data Portal aggregates data from the regional data providers for the convenience of all data users. Data published on this website should not be used for navigation or certain other uses as we cannot guarantee data accuracy or availability. The data and delivery services are provided 'as is' without warranty of any kind. Data Source: Gulf of Mexico Coastal Ocean Observing System Data Portal (http://data.gcoos.org/) 
